STARLINK-2051 (47661 NORAD) Tracking and Keplerian Element Data
This shows tracking and keplerian element data for the satellite.
Feedback or suggestion? Click here.
Element | Value |
Catalog | 47661 |
Name | STARLINK-2051 |
Epoch Orbit | 282 |
Epoch Day | 60.16668981 |
Epoch Year | 2021 |
RAAN | 36.8483 |
Inclination | 53.0499 |
Eccentricity | 0.0001454 |
Argument of Perigee | 97.5802 |
Mean Anonmoly | 15.6046 |
Mean Motion | 15.86471695 |
Decay Rate | 0.00052903 |
L1 | 1 47661U 21012AT 21060.16668981 .00052903 00000-0 20719-3 0 9995 |
L2 | 2 47661 53.0499 36.8483 0001454 97.5802 15.6046 15.86471695 2829 |
Live tracking and technical data element details for STARLINK-2051 (NORAD 47661). STARLINK-2051 can be tracked NOW for your location showing map with azimuth and elevation plus other details from your city location.
Track the satellite on the map from your city or location and see movement details for azimuth, elevation, latitude, longitude, range, height, and movement on the map or in text.
IsCatalogInMostPopularTable: catalog: 47661, numindb: 5
Update: records affected: 1
GetName: 47661 STARLINK-2051
Hit Count: updated at: Mon, 01 Mar 2021 15:41:47 GMT